Flag for U.S.A. Weather past 2 weeks in Pasadena, California, U.S.A.

Now
65 °F

Clear.


Feels Like: 65 °F
Forecast: 63 / 82 °F
Wind: 3 mph from East

Location: Burbank-Glendale-Pasadena Airport

Current Time: Sep 20, 2014 at 9:33:16 AM

Latest Report: Sep 20, 2014 at 5:53 AM


Visibility: 10 mi

Pressure: 29.88 "Hg

Humidity: 81%

Dew point: 59 °F

Location of PasadenaLocation

Historic Weather in Pasadena — Graph

°F

Pasadena temperature yesterday

Maximum temperature yesterday: 80 °F (at 1:53 PM)
Minimum temperature yesterday: 66 °F (at 2:53 AM)
Average temperature yesterday: 72 °F

Past Weeks' High & Low Weather Summary

 TemperatureHumidityPressure
High103 °F (Sep 14, 12:53 PM)86% (Sep 5, 6:53 AM)29.90 "Hg (Sep 5, 6:53 AM)
Low62 °F (Sep 5, 5:53 AM)12% (Sep 14, 2:53 PM)29.64 "Hg (Sep 16, 4:53 PM)
Average81 °F43%29.78 "Hg
* Reported Sep 5 5:53 AM — Sep 20 5:53 AM, Pasadena, Weather by CustomWeather, © 2014

Note: Actual official high and low records may vary slightly from our data, if they occured in-between our weather recording intervals... More about our weather records

Advertising

Pasadena weather history for previous 24 hours

 ConditionsComfort  
Time TempWeatherWind HumidityBarometerVisibility
5:53 AM
Sep 20
65 °FClear.3 mph81%29.88 "Hg10 mi
4:53 AM65 °FClear.No wind81%29.86 "Hg10 mi
3:53 AM66 °FClear.No wind81%29.86 "Hg10 mi
2:53 AM66 °FClear.No wind81%29.86 "Hg10 mi
1:53 AM67 °FClear.6 mph79%29.87 "Hg10 mi
12:53 AM67 °FClear.5 mph79%29.86 "Hg10 mi
11:53 PM
Sep 19
69 °FClear.6 mph73%29.85 "Hg10 mi
10:53 PM70 °FClear.No wind71%29.85 "Hg10 mi
9:53 PM70 °FClear.3 mph68%29.84 "Hg10 mi
8:53 PM71 °FClear.5 mph66%29.84 "Hg10 mi
7:53 PM72 °FSunny.5 mph61%29.82 "Hg10 mi
6:53 PM74 °FSunny.6 mph57%29.80 "Hg10 mi
5:53 PM76 °FSunny.7 mph54%29.80 "Hg10 mi
4:53 PM77 °FSunny.10 mph52%29.79 "Hg10 mi
3:53 PM80 °FSunny.10 mph47%29.79 "Hg10 mi
2:53 PM80 °FSunny.9 mph49%29.80 "Hg10 mi
1:53 PM80 °FSunny.8 mph47%29.81 "Hg10 mi
12:53 PM79 °FScattered clouds.9 mph48%29.84 "Hg10 mi
11:53 AM76 °FPartly sunny.6 mph56%29.86 "Hg10 mi
10:53 AM74 °FOvercast.9 mph57%29.87 "Hg10 mi
9:53 AM71 °FOvercast.9 mph66%29.88 "Hg10 mi
Weather by CustomWeather, © 2014

See weather overviewHow to use our weather pages